Погода в Балаганске

Погода в Балаганске : погода сейчас, прогноз погоды и архив. Всё, что Вы хотите узнать о погоде в Балаганске!

Хотите узнать прогноз погоды в Балаганске? Тогда Вам сюда: Погода в Балаганске

Поиск расширенной информации на нашем сайте:

Другие новости

Новости СМИ2

Главная страница сайта

Новости сайта

03.07.2017

Напоминаем, что на нашем специализированном сайте Метеоцентр.Азия вы можете получить высокодетализированные автоматические прогнозы погоды по пунктам России, СНГ и мира в авиационном формате (включающие направление и скорость ветра, видимость, явления погоды, количество и форму облачности, нижнюю и верхнюю границу облачности).


Погода в Балаганске - сегодня

Время (UTC), дата Ветер
(°,м/с) 
Видим.   Явления Облачность Т
(°С)
Тd
(°С)
f(%) Тe
(°С)
Pmin
(гПа)
dP
(гПа)
Po
(мм)
O2
(г/м3)
Тmin Tmax R s Состояние
почвы
06 19.10.18 тихо ()   20000 м    10/6 600 м кучево-дожд., средняя 
[Cb cap|Ac As]
+3.8 +0.8 81 +4  1018.8  -1.8  725  288           
09 19.10.18 110 (В) 20000 м    10/6 600 м кучево-дожд., средняя 
[Cb cap|Ac As]
+4.1 +1 80 +4  1017.7  -1  724  287           
12 19.10.18 080 (В) н/о    10/6 600 м кучево-дожд., средняя 
[Cb cap|Ac As]
+3.5 +0.9 83 +2  1017.6  -0.2  724  288    +4.1       
15 19.10.18 280 (З) н/о    10/6 600 м кучево-дожд., средняя 
[Cb cap|Ac As]
+2.8 +1.8 93 +2  1017.1  -0.6  724  288           
18 19.10.18 270 (З) н/о    10/8 600 м кучево-дожд., средняя 
[Cb cap|Ac As]
+2.5 +1.7 94 +2  1016.5  -0.7  723  288           
21 19.10.18 300 (СЗ) н/о    10/8 600 м кучево-дожд., средняя 
[Cb cap|Ac As]
+2.8 +1.6 92 +2  1015.8  -0.6  723  288           
00 20.10.18 270 (З) 20000 м    10/6 600 м кучево-дожд., средняя 
[Cb cap|Ac As]
+2.3 +0.2 86 +1  1016  0.1  723  289  +2.3         
03 20.10.18 290 (З) 20000 м    10/6 600 м кучево-дожд., средняя 
[Cb cap|Ac As]
+2.9 +0.1 82 +1  1016.6  0.6  723  288           
06 20.10.18 300 (СЗ) 20000 м    10/10 600 м кучево-дожд. 
[Cb cap]
+3.6 -0.1 77 +2  1016.5  0.1  724  288           
09 20.10.18 300 (СЗ) 20000 м    10/10 600 м кучево-дожд. 
[Cb cap]
+2.9 -0.2 80 +1  1017.8  1.1  724  289           
12 20.10.18 290 (З) н/о    10/10 600 м кучево-дожд. 
[Cb cap]
+2.4 -0.5 81 +1  1019.3  1.3  725  290    +3.7       
15 20.10.18 280 (З) н/о    10/6 600 м кучево-дожд., средняя 
[Cb cap|Ac As]
+1.8 -1.8 77 1020  0.5  726  291           
18 20.10.18 290 (З) н/о    10/6 600 м кучево-дожд., средняя 
[Cb cap|Ac As]
-2 -4 86 -4  1021  0.3  726  295           
21 20.10.18 290 (З) н/о    8/3 600 м средняя, верхняя 
[Sc|Ac trans|Cs]
-3.3 -5 88 -4  1021.5  0.2  726  297           
00 21.10.18 270 (З) 20000 м    6/3 600 м средняя, верхняя 
[Sc|Ac trans|Cs]
-4.1 -6.2 85 -6  1022.7  0.9  727  298  -4.1         
03 21.10.18 310 (СЗ) 20000 м    6/3 600 м средняя, верхняя 
[Sc|Ac trans|Cs]
+1.8 -2.7 72 +3  1022.1  0.6  727  291  -4.2         
06 21.10.18 360 (С) 20000 м    8/5 600 м кучево-дожд., верхняя 
[Cb cap|Cs]
+3.6 -3.4 60 +2  1021.2  -0.5  727  289           
09 21.10.18 290 (З) 20000 м    10/3 600 м кучево-дожд., средняя, верхняя 
[Cb cap|Ac As|Cs]
+2.1 -2.8 70 1022.2  0.7  727  291           
12 21.10.18 280 (З) н/о    10/4 600 м кучево-дожд., средняя 
[Cb cap|Ac As]
+0.6 -3.1 76 1022.8  0.3  728  293    +3.6       
15 21.10.18 260 (З) н/о    10/4 600 м кучево-дожд., средняя 
[Cb cap|Ac As]
-1.3 -3.7 84 -2  1022.7  -0.5  727  295           
18 21.10.18 210 (ЮЗ) н/о    10/4 600 м кучево-дожд., средняя 
[Cb cap|Ac As]
-0.5 -2.4 87 1020.8  -1.6  726  293           
21 21.10.18 220 (ЮЗ) н/о    10/4 600 м кучево-дожд., средняя 
[Cb cap|Ac As]
-2.3 -3.7 90 -3  1019.4  -1.7  725  295           
00 22.10.18 210 (ЮЗ) 20000 м    4/4 600 м кучево-дожд. 
[Cb cap]
-2.4 -3.1 95 -3  1018.2  -1.2  724  295  -3.7         
03 22.10.18 160 (Ю) 20000 м    8/6 600 м верхняя 
[Sc diur, vesp|Ci fib]
+2.6 -1.3 75 +1  1016.3  -0.8  723  289           
06 22.10.18 120 (ЮВ) 20000 м    9/5 600 м верхняя 
[Sc diur, vesp|Ci fib]
+4.4 -1.5 65 +2  1014.1  -1.8  722  286           
Время (UTC), дата Ветер
(°,м/с) 
Видим.   Явления Облачность Т
(°С)
Тd
(°С)
f(%) Тe
(°С)
Pmin
(гПа)
dP
(гПа)
Po
(мм)
O2
(г/м3)
Тmin Tmax R s Состояние
почвы

Для получения пояснительной информации подведите курсор к названию столбца.

ПОГОДА в Балаганске - архив

Всё, что Вы хотите узнать о погоде в Балаганске - удобно и подробно!

Выберите нужную дату (начиная с 1 января 2015* года) и нажмите кнопку "Найти".
Будут отображены архивные сводки погоды по пункту Балаганск, начиная с указанной даты.


Отображать данные в формате CSV (для использования в таблицах Excel)


Внимание! Наш архив погоды предназначен исключительно для личного некоммерческого использования в познавательных целях. Если Вам необходимы официальные справки о состоянии погоды (для производственных, юридических, коммерческих и т.п. целей), обращайтесь в органы Росгидромета.

*Примечание: данная дата относится к архиву по метеостанциям СССР (Россия, СНГ, Балтия).
Архив по метеостанциям Зарубежной Европы и Азии (кроме Китая) хранится 10 дней, по другим регионам земного шара (Китай, Африка, Америка, Австралия, Океания) - 1 день.

Балаганск - район местоположения метеостанции


Название, широта, долгота, высота метеостанции:
Балаганск 54°ш. 103.1°д. 427 м над ур. моря [Российская Федерация]

Дополнительная информация

В oтличие oт бoльшинства пoгoдных сайтoв мы публикуем пoдрoбную метеoинфoрмацию в детальнoм прoфессиoнальнoм фoрмате.

Характеристики температуры и влажнoсти вoздуха измеряются на высoте 2 м в тени вдали oт зданий и деревьев.
Скoрoсть ветра измеряется на высoте 10 м (на урoвне рoста челoвека скoрoсть ветра ниже в 1.5-2 раза). Если метеoстанция нахoдится в гoрoде или в лесу, тo скoрoсть ветра занижена на 2-4 м/с пo сравнению с oткрытым местoм. Скoрoсть ветра над акватoриями крупных рек и oзёр, а также на вершинах хoлмoв на 2-5 м/с выше, чем в oбычных услoвиях.
Атмoсфернoе давление в разных тoчках местнoсти мoжет значительнo oтличаться oт давления на метеoстанции, в зависимoсти oт услoвий рельефа (при пoдъёме на 10 м давление пoнижается примернo на 1 мм рт.ст.).